TimeEST,TemperatureF,Dew PointF,Humidity,Sea Level PressureIn,VisibilityMPH,Wind Direction,Wind SpeedMPH,Gust SpeedMPH,PrecipitationIn,Events,Conditions,WindDirDegrees,DateUTC
12:56 AM,46.9,44.1,90,30.27,10.0,NE,5.8,-,N/A,,Clear,40,2013-02-10 05:56:00
1:56 AM,46.0,44.1,93,30.27,10.0,NE,5.8,-,N/A,,Clear,50,2013-02-10 06:56:00
2:56 AM,46.0,44.1,93,30.26,10.0,NE,4.6,-,N/A,,Clear,50,2013-02-10 07:56:00
3:56 AM,46.9,44.1,90,30.25,10.0,NE,4.6,-,N/A,,Clear,40,2013-02-10 08:56:00
4:56 AM,46.0,42.1,86,30.25,10.0,Calm,Calm,-,N/A,,Mostly Cloudy,0,2013-02-10 09:56:00
5:56 AM,46.0,44.1,93,30.25,10.0,NE,3.5,-,N/A,,Mostly Cloudy,40,2013-02-10 10:56:00
6:56 AM,46.0,44.1,93,30.26,10.0,NNE,3.5,-,N/A,,Mostly Cloudy,20,2013-02-10 11:56:00
7:56 AM,50.0,48.0,93,30.29,10.0,Calm,Calm,-,N/A,,Mostly Cloudy,0,2013-02-10 12:56:00
8:56 AM,60.1,55.0,83,30.30,10.0,Calm,Calm,-,N/A,,Mostly Cloudy,0,2013-02-10 13:56:00
9:56 AM,68.0,51.8,56,30.30,10.0,ESE,12.7,20.7,N/A,,Scattered Clouds,120,2013-02-10 14:56:00
10:56 AM,71.1,51.1,49,30.32,10.0,SE,15.0,24.2,N/A,,Scattered Clouds,140,2013-02-10 15:56:00
11:56 AM,71.1,48.9,45,30.30,10.0,ESE,16.1,25.3,N/A,,Mostly Cloudy,120,2013-02-10 16:56:00
12:56 PM,73.0,51.1,46,30.26,10.0,SE,15.0,-,N/A,,Mostly Cloudy,130,2013-02-10 17:56:00
1:56 PM,72.0,51.1,48,30.25,10.0,ESE,17.3,23.0,N/A,,Mostly Cloudy,120,2013-02-10 18:56:00
2:56 PM,73.0,52.0,48,30.22,10.0,ESE,12.7,-,N/A,,Mostly Cloudy,120,2013-02-10 19:56:00
3:56 PM,72.0,53.1,51,30.21,10.0,SE,17.3,24.2,N/A,,Mostly Cloudy,130,2013-02-10 20:56:00
4:56 PM,70.0,54.0,57,30.21,10.0,SE,17.3,23.0,N/A,,Scattered Clouds,130,2013-02-10 21:56:00
5:56 PM,68.0,55.0,63,30.21,10.0,SE,12.7,-,N/A,,Mostly Cloudy,130,2013-02-10 22:56:00
6:56 PM,66.0,55.9,70,30.20,10.0,SE,9.2,-,N/A,,Scattered Clouds,140,2013-02-10 23:56:00
7:56 PM,64.9,55.9,73,30.18,10.0,SE,11.5,-,N/A,,Scattered Clouds,140,2013-02-11 00:56:00
8:56 PM,64.9,55.9,73,30.19,10.0,SSE,10.4,-,N/A,,Scattered Clouds,160,2013-02-11 01:56:00
9:56 PM,64.9,57.0,75,30.19,10.0,SSE,11.5,-,N/A,,Mostly Cloudy,160,2013-02-11 02:56:00
10:56 PM,64.9,57.0,75,30.18,10.0,SSE,13.8,-,N/A,,Mostly Cloudy,160,2013-02-11 03:56:00
11:56 PM,64.9,57.0,75,30.19,10.0,South,8.1,-,N/A,,Mostly Cloudy,170,2013-02-11 04:56:00